QPF
0.00 0.00 0.00 0.00 0.00 0.00 0.00 0.00 0.00 0.00 0.00 0.00 0.00 0.00 0.00 0.00 0.00 0.00 0.00 0.00 0.00 0.00 0.00 0.00 0.00 0.00 0.00 0.00 0.00 0.00 0.00 0.00 0.00 0.00 0.00 0.00 0.00 0.00 0.00 0.00 0.00 0.00 0.00 0.00
0.00 0.00 0.00 0.00 0.00 0.00 0.00 0.00 0.00 0.00 0.00 0.00 0.00 0.00 0.00 0.00 0.00 0.00 0.00 0.00 0.00 0.00 0.00 0.00 0.00 0.00 0.00 0.00 0.00 0.00 0.00 0.00 0.00 0.00 0.00 0.00 0.00 0.00 0.00 0.00 0.00 0.00 0.00 0.00
0.00 0.00 0.00 0.00 0.00 0.00 0.00 0.00 0.00 0.00 0.00 0.00 0.00 0.00 0.00 0.00 0.00 0.00 0.00 0.00 0.00 0.00 0.00 0.00 0.00 0.00 0.00 0.00 0.00 0.00 0.00 0.00 0.00 0.00 0.00 0.00 0.00 0.00 0.00 0.00 0.00 0.00 0.00 0.00
0.00 0.00 0.00 0.00 0.00 0.00 0.00 0.00 0.00 0.00 0.00 0.00 0.00 0.00 0.00 0.00 0.00 0.00 0.00 0.00 0.00 0.00 0.00 0.00 0.00 0.00 0.00 0.00 0.00 0.00 0.00 0.00 0.00 0.00 0.00 0.00 0.00 0.00 0.00 0.00 0.00 0.00 0.00 0.00
0.00 0.00 0.00 0.00 0.00 0.00 0.00 0.00 0.00 0.00 0.00 0.00 0.00 0.00 0.00 0.00 0.00 0.00 0.00 0.00 0.00 0.00 0.00 0.00 0.00 0.00 0.00 0.00 0.00 0.00 0.00 0.00 0.00 0.00 0.00 0.00 0.00 0.00 0.00 0.00 0.00 0.00 0.00 0.00
0.00 0.00 0.00 0.00 0.00 0.00 0.00 0.00 0.00 0.00 0.00 0.00 0.00 0.00 0.00 0.00 0.00 0.00 0.00 0.00 0.00 0.00 0.00 0.00 0.00 0.00 0.00 0.00 0.00 0.00 0.00 0.00 0.00 0.00 0.00 0.00 0.00 0.00 0.00 0.00 0.00 0.00 0.00 0.00
0.00 0.00 0.00 0.00 0.00 0.00 0.00 0.00 0.00 0.00 0.00 0.00 0.00 0.00 0.00 0.00 0.00 0.00 0.00 0.00 0.00 0.00 0.00 0.00 0.00 0.00 0.00 0.00 0.00 0.00 0.00 0.00 0.00 0.00 0.00 0.00 0.00 0.00 0.00 0.00 0.00 0.00 0.00 0.00
0.00 0.00 0.00 0.00 0.00 0.00 0.00 0.00 0.00 0.00 0.00 0.00 0.00 0.00 0.00 0.00 0.00 0.00 0.00 0.00 0.00 0.00 0.00 0.00 0.00 0.00 0.00 0.00 0.00 0.00 0.00 0.00 0.00 0.00 0.00 0.00 0.00 0.00 0.00 0.00 0.00 0.00 0.00 0.00
0.00 0.00 0.00 0.00 0.00 0.00 0.00 0.00 0.00 0.00 0.00 0.00 0.00 0.00 0.00 0.00 0.00 0.00 0.00 0.00 0.00 0.00 0.00 0.00 0.00 0.00 0.00 0.00 0.00 0.00 0.00 0.00 0.00 0.00 0.00 0.00 0.00 0.00 0.00 0.00 0.00 0.00 0.00 0.00
0.00 0.00 0.00 0.00 0.00 0.00 0.00 0.00 0.00 0.00 0.00 0.00 0.00 0.00 0.00 0.00 0.00 0.00 0.00 0.00 0.00 0.00 0.00 0.00 0.00 0.00 0.00 0.00 0.00 0.00 0.00 0.00 0.00 0.00 0.00 0.00 0.00 0.00 0.00 0.00 0.00 0.00 0.00 0.00
0.00 0.00 0.00 0.00 0.00 0.00 0.00 0.00 0.00 0.00 0.00 0.00 0.00 0.00 0.00 0.00 0.00 0.00 0.00 0.00 0.00 0.00 0.00 0.00 0.00 0.00 0.00 0.00 0.00 0.00 0.00 0.00 0.00 0.00 0.00 0.00 0.00 0.00 0.00 0.00 0.00 0.00 0.00 0.00
0.00 0.00 0.00 0.00 0.00 0.00 0.00 0.00 0.00 0.00 0.00 0.00 0.00 0.00 0.00 0.00 0.00 0.00 0.00 0.00 0.00 0.00 0.00 0.00 0.00 0.00 0.00 0.00 0.00 0.00 0.00 0.00 0.00 0.00 0.00 0.00 0.00 0.00 0.00 0.00 0.00 0.00 0.00 0.00
0.00 0.00 0.00 0.00 0.00 0.00 0.00 0.00 0.00 0.00 0.00 0.00 0.00 0.00 0.00 0.00 0.00 0.00 0.00 0.00 0.00 0.00 0.00 0.00 0.00 0.00 0.00 0.00 0.00 0.00 0.00 0.00 0.00 0.00 0.00 0.00 0.00 0.00 0.00 0.00 0.00 0.00 0.00 0.00
0.00 0.00 0.00 0.00 0.00 0.00 0.00 0.00 0.00 0.00 0.00 0.00 0.00 0.00 0.00 0.00 0.00 0.00 0.00 0.00 0.00 0.00 0.00 0.00 0.00 0.00 0.00 0.00 0.00 0.00 0.00 0.00 0.00 0.00 0.00 0.00 0.00 0.00 0.00 0.00 0.00 0.00 0.00 0.00
0.00 0.00 0.00 0.00 0.00 0.00 0.00 0.00 0.00 0.00 0.00 0.00 0.00 0.00 0.00 0.00 0.00 0.00 0.00 0.00 0.00 0.00 0.00 0.00 0.00 0.00 0.00 0.00 0.00 0.00 0.00 0.00 0.00 0.00 0.00 0.00 0.00 0.00 0.00 0.00 0.00 0.00 0.00 0.00
0.00 0.00 0.00 0.00 0.00 0.00 0.00 0.00 0.00 0.00 0.00 0.00 0.00 0.00 0.00 0.00 0.00 0.00 0.00 0.00 0.00 0.00 0.00 0.00 0.00 0.00 0.00 0.00 0.00 0.00 0.00 0.00 0.00 0.00 0.00 0.00 0.00 0.00 0.00 0.00 0.00 0.00 0.00 0.00
0.00 0.00 0.00 0.00 0.00 0.00 0.00 0.00 0.00 0.00 0.00 0.00 0.00 0.00 0.00 0.00 0.00 0.00 0.00 0.00 0.00 0.00 0.00 0.00 0.00 0.00 0.00 0.00 0.00 0.00 0.00 0.00 0.00 0.00 0.00 0.00 0.00 0.00 0.00 0.00 0.00 0.00 0.00 0.00
0.00 0.00 0.00 0.00 0.00 0.00 0.00 0.00 0.00 0.00 0.00 0.00 0.00 0.00 0.00 0.00 0.00 0.00 0.00 0.00 0.00 0.00 0.00 0.00 0.00 0.00 0.00 0.00 0.00 0.00 0.00 0.00 0.00 0.00 0.00 0.00 0.00 0.00 0.00 0.00 0.00 0.00 0.00 0.00
0.00 0.00 0.00 0.00 0.00 0.00 0.00 0.00 0.00 0.00 0.00 0.00 0.00 0.00 0.00 0.00 0.00 0.00 0.00 0.00 0.00 0.00 0.00 0.00 0.00 0.00 0.00 0.00 0.00 0.00 0.00 0.00 0.00 0.00 0.00 0.00 0.00 0.00 0.00 0.00 0.00 0.00 0.00 0.00
0.00 0.00 0.00 0.00 0.00 0.00 0.00 0.00 0.00 0.00 0.00 0.00 0.00 0.00 0.00 0.00 0.00 0.00 0.00 0.00 0.00 0.00 0.00 0.00 0.00 0.00 0.00 0.00 0.00 0.00 0.00 0.00 0.00 0.00 0.00 0.00 0.00 0.00 0.00 0.00 0.00 0.00 0.00 0.00
0.00 0.00 0.00 0.00 0.00 0.00 0.00 0.00 0.00 0.00 0.00 0.00 0.00 0.00 0.00 0.00 0.00 0.00 0.00 0.00 0.00 0.00 0.00 0.00 0.00 0.00 0.00 0.00 0.00 0.00 0.00 0.00 0.00 0.00 0.00 0.00 0.00 0.00 0.00 0.00 0.00 0.00 0.00 0.00
0.00 0.00 0.00 0.00 0.00 0.00 0.00 0.00 0.00 0.00 0.00 0.00 0.00 0.00 0.00 0.00 0.00 0.00 0.00 0.00 0.00 0.00 0.00 0.00 0.00 0.00 0.00 0.00 0.00 0.00 0.00 0.00 0.00 0.00 0.00 0.00 0.00 0.00 0.00 0.00 0.00 0.00 0.00 0.00
0.00 0.00 0.00 0.00 0.00 0.00 0.00 0.00 0.00 0.00 0.00 0.00 0.00 0.00 0.00 0.00 0.00 0.00 0.00 0.00 0.00 0.00 0.00 0.00 0.00 0.00 0.00 0.00 0.00 0.00 0.00 0.00 0.00 0.00 0.00 0.00 0.00 0.00 0.00 0.00 0.00 0.00 0.00 0.00
0.00 0.00 0.00 0.00 0.00 0.00 0.00 0.00 0.00 0.00 0.00 0.00 0.00 0.00 0.00 0.00 0.00 0.00 0.00 0.00 0.00 0.00 0.00 0.00 0.00 0.00 0.00 0.00 0.00 0.00 0.00 0.00 0.00 0.00 0.00 0.00 0.00 0.00 0.00 0.00 0.00 0.00 0.00 0.00
0.00 0.00 0.00 0.00 0.00 0.00 0.00 0.00 0.00 0.00 0.00 0.00 0.00 0.00 0.00 0.00 0.00 0.00 0.00 0.00 0.00 0.00 0.00 0.00 0.00 0.00 0.00 0.00 0.00 0.00 0.00 0.00 0.00 0.00 0.00 0.00 0.00 0.00 0.00 0.00 0.00 0.00 0.00 0.00
0.00 0.00 0.00 0.00 0.00 0.00 0.00 0.00 0.00 0.00 0.00 0.00 0.00 0.00 0.00 0.00 0.00 0.00 0.00 0.00 0.00 0.00 0.00 0.00 0.00 0.00 0.00 0.00 0.00 0.00 0.00 0.00 0.00 0.00 0.00 0.00 0.00 0.00 0.00 0.00 0.00 0.00 0.00 0.00
MSLP
1018.10 1018.80 1018.99 1018.73 1018.83 1018.77 1019.02 1019.26 1019.01 1018.51 1018.06 1018.58 1018.45 1018.31 1018.02 1018.34 1018.99 1019.14 1019.50 1019.72 1020.06 1020.27 1020.75 1021.44 1021.79 1022.14 1022.49 1022.64 1022.79 1022.85 1022.92 1023.01 1023.19 1023.65 1024.17 1024.72 1025.28 1025.78 1025.75 1025.80 1025.73 1026.27 1026.79 1027.01
1019.01 1018.60 1018.05 1018.50 1018.87 1019.00 1019.10 1019.28 1019.05 1018.64 1018.25 1018.72 1018.36 1018.25 1017.72 1017.70 1017.61 1017.43 1017.55 1018.11 1018.39 1019.51 1020.28 1020.98 1021.54 1021.94 1022.24 1022.41 1022.61 1022.74 1022.72 1022.86 1022.95 1023.23 1023.86 1024.51 1025.49 1026.36 1026.57 1026.75 1026.72 1026.56 1026.92 1027.40
1018.36 1017.63 1017.39 1018.34 1018.78 1019.15 1018.97 1019.05 1018.96 1018.93 1018.66 1018.77 1018.82 1018.27 1017.59 1016.37 1016.16 1015.92 1015.88 1015.81 1016.54 1017.35 1018.68 1019.92 1020.73 1021.10 1021.67 1021.96 1022.19 1022.40 1022.57 1022.67 1022.87 1023.11 1023.84 1024.84 1025.72 1026.47 1027.01 1027.41 1027.58 1027.49 1027.29 1027.65
1018.09 1017.31 1017.56 1018.03 1018.31 1018.63 1018.63 1018.20 1018.59 1019.00 1019.46 1019.49 1019.21 1017.88 1017.03 1016.20 1015.50 1015.16 1014.37 1014.89 1015.21 1016.32 1017.69 1018.98 1019.90 1020.62 1020.89 1021.27 1021.75 1022.01 1022.32 1022.61 1022.94 1023.14 1023.70 1024.20 1025.06 1026.31 1027.19 1027.63 1028.02 1027.92 1027.78 1028.19
1016.73 1016.91 1017.31 1017.45 1017.28 1017.87 1018.06 1018.22 1018.84 1019.27 1019.87 1020.09 1019.80 1019.59 1016.04 1015.56 1015.19 1014.26 1013.23 1013.74 1014.31 1015.24 1016.12 1017.39 1018.28 1019.06 1020.04 1020.72 1021.18 1021.64 1022.09 1022.54 1022.90 1023.25 1023.69 1024.32 1025.34 1026.15 1027.09 1027.83 1028.28 1028.39 1028.61 1028.75
1016.74 1016.56 1016.63 1016.47 1017.05 1017.31 1018.03 1018.81 1019.69 1020.47 1020.98 1020.64 1019.38 1019.35 1015.69 1015.01 1013.71 1013.04 1012.39 1012.91 1013.51 1014.43 1015.49 1016.57 1017.75 1018.78 1019.72 1020.42 1020.94 1021.35 1021.86 1022.42 1022.86 1023.28 1023.83 1024.35 1025.14 1026.10 1027.22 1028.04 1028.51 1028.83 1029.14 1029.31
1016.92 1016.67 1016.57 1016.61 1017.33 1017.91 1018.23 1019.45 1020.83 1021.71 1021.94 1020.03 1018.96 1018.64 1014.53 1013.32 1012.61 1012.30 1012.11 1012.52 1013.32 1014.23 1015.32 1016.44 1017.42 1018.34 1019.25 1019.94 1020.48 1021.00 1021.41 1022.10 1022.69 1023.29 1023.79 1024.36 1024.96 1025.56 1026.39 1027.44 1028.20 1028.83 1029.24 1029.59
1016.55 1016.48 1016.04 1016.09 1016.02 1017.04 1018.10 1018.58 1019.76 1020.67 1021.46 1020.50 1019.37 1016.86 1013.59 1012.28 1011.63 1012.10 1012.24 1012.45 1013.34 1014.65 1015.56 1016.35 1016.96 1017.81 1018.71 1019.51 1020.23 1020.71 1021.17 1021.78 1022.49 1023.21 1023.80 1024.33 1024.86 1025.55 1026.43 1027.21 1028.08 1028.59 1028.85 1029.22
1015.77 1015.66 1015.27 1015.49 1015.64 1016.23 1017.89 1018.20 1018.52 1019.87 1021.40 1020.85 1017.92 1015.02 1013.25 1012.24 1011.92 1011.74 1011.90 1012.91 1013.99 1014.92 1015.41 1015.92 1016.83 1017.58 1018.46 1019.22 1019.75 1020.24 1020.78 1021.42 1022.18 1022.87 1023.60 1024.24 1024.85 1025.50 1026.29 1027.25 1028.11 1028.59 1028.96 1029.28
1014.29 1015.21 1015.55 1015.84 1015.98 1016.37 1016.32 1016.88 1018.67 1020.00 1020.82 1019.83 1016.78 1015.01 1012.70 1011.96 1011.72 1011.42 1011.90 1012.45 1013.59 1014.68 1015.53 1016.12 1016.75 1017.34 1018.01 1018.84 1019.53 1020.15 1020.65 1021.11 1021.80 1022.54 1023.27 1023.95 1024.63 1025.36 1026.18 1027.10 1027.91 1028.49 1028.90 1029.31
1014.01 1014.65 1016.00 1016.04 1015.74 1015.67 1016.49 1016.49 1017.17 1018.04 1018.78 1018.08 1016.36 1012.56 1010.51 1010.20 1010.30 1010.72 1011.10 1011.56 1012.87 1014.01 1014.99 1015.68 1016.50 1017.23 1017.97 1018.60 1019.28 1019.86 1020.37 1020.91 1021.63 1022.23 1022.93 1023.65 1024.37 1025.14 1026.08 1026.98 1027.72 1028.19 1028.70 1029.26
1013.23 1014.05 1015.07 1015.16 1015.18 1015.27 1015.19 1015.27 1015.84 1016.54 1017.17 1016.52 1014.78 1009.36 1009.14 1009.17 1009.56 1010.17 1010.55 1011.13 1012.10 1013.17 1014.34 1015.24 1016.10 1016.98 1017.67 1018.32 1018.86 1019.39 1020.07 1020.60 1021.22 1021.97 1022.72 1023.42 1024.10 1024.88 1025.78 1026.59 1027.29 1027.97 1028.48 1029.12
1012.78 1013.66 1014.64 1014.95 1015.46 1015.36 1015.22 1014.99 1014.55 1015.03 1015.36 1013.56 1013.85 1008.20 1008.82 1008.72 1009.27 1009.61 1010.21 1010.73 1011.84 1013.09 1014.07 1015.02 1015.82 1016.37 1017.02 1017.76 1018.32 1018.87 1019.53 1020.19 1020.90 1021.69 1022.44 1023.29 1023.94 1024.57 1025.37 1026.19 1026.94 1027.62 1028.21 1028.79
1011.33 1012.47 1012.87 1012.25 1012.10 1013.03 1014.15 1013.68 1013.87 1014.12 1013.71 1011.35 1009.72 1007.56 1008.36 1008.44 1008.76 1009.02 1009.81 1010.64 1011.40 1012.53 1013.37 1014.25 1014.99 1015.43 1016.09 1016.75 1017.48 1018.10 1018.88 1019.61 1020.52 1021.27 1022.11 1022.94 1023.72 1024.16 1024.79 1025.76 1026.61 1027.30 1027.86 1028.51
1010.89 1011.78 1012.00 1010.99 1011.81 1011.99 1011.95 1011.85 1012.24 1012.04 1009.72 1011.01 1005.90 1008.17 1005.82 1007.46 1008.15 1008.34 1008.99 1009.99 1011.13 1011.98 1012.80 1013.08 1013.65 1014.28 1014.98 1015.78 1016.52 1017.36 1018.26 1019.12 1020.04 1020.94 1021.64 1022.53 1023.35 1024.24 1024.67 1025.21 1026.21 1026.99 1027.65 1028.15
1010.73 1010.75 1011.85 1011.19 1010.96 1011.45 1011.64 1011.11 1009.87 1009.88 1009.32 1009.48 1007.32 1005.98 1006.47 1006.62 1007.08 1007.85 1008.48 1009.38 1010.23 1010.71 1010.95 1011.35 1012.21 1013.10 1013.56 1014.18 1015.09 1016.16 1017.24 1018.19 1019.20 1020.28 1021.13 1022.04 1023.03 1023.94 1024.89 1024.92 1025.81 1026.70 1027.41 1028.04
1010.72 1011.03 1011.61 1010.55 1010.58 1011.65 1011.45 1006.03 1009.00 1008.96 1008.37 1008.27 1007.56 1002.81 1006.22 1006.11 1006.48 1006.65 1007.24 1008.13 1008.75 1009.12 1009.29 1009.97 1010.52 1010.89 1011.70 1012.56 1013.47 1014.51 1015.85 1017.42 1018.56 1019.68 1020.64 1021.52 1022.45 1023.28 1024.44 1024.61 1025.35 1026.23 1027.12 1027.88
1009.93 1010.76 1011.12 1010.25 1010.78 1009.38 1005.37 1006.07 1006.31 1006.92 1006.81 1007.18 1006.10 1003.83 1005.00 1005.23 1005.37 1005.38 1006.26 1006.96 1007.07 1007.32 1007.91 1008.61 1009.34 1010.07 1010.70 1011.73 1012.82 1014.11 1015.40 1016.60 1017.84 1019.12 1020.10 1021.02 1021.97 1022.72 1024.03 1024.34 1024.77 1025.80 1026.72 1027.49
1009.25 1009.77 1009.92 1009.78 1008.94 1007.31 1005.90 1004.97 1005.72 1006.33 1005.01 1004.80 1005.43 1004.50 1004.28 1005.34 1006.03 1003.97 1005.73 1005.23 1005.20 1006.00 1006.30 1006.76 1007.50 1008.72 1010.15 1011.35 1012.67 1014.01 1015.14 1016.37 1017.51 1018.49 1019.35 1020.32 1021.33 1022.20 1023.40 1023.83 1024.41 1025.36 1026.22 1027.06
1008.40 1008.67 1009.08 1009.00 1008.10 1006.84 1003.35 1004.68 1004.60 1006.19 1005.67 1003.30 1004.79 1003.85 1004.00 1005.97 1006.58 1003.20 1004.08 1004.39 1004.79 1005.30 1005.79 1006.59 1007.56 1008.81 1009.96 1011.15 1012.21 1013.71 1015.10 1016.03 1017.00 1017.77 1018.61 1019.67 1020.79 1021.80 1022.67 1023.09 1023.92 1024.82 1025.78 1026.23
1007.23 1007.67 1007.59 1007.66 1007.32 1006.50 1004.80 1005.16 1005.43 1007.06 1004.48 1004.27 1004.32 1004.08 1004.66 1005.30 1004.68 1005.09 1004.90 1005.20 1005.74 1006.24 1006.76 1007.28 1008.00 1008.92 1009.91 1011.13 1012.29 1013.62 1014.92 1015.54 1016.17 1017.39 1018.36 1019.27 1020.10 1021.24 1021.90 1022.60 1023.65 1024.50 1025.40 1026.11
1006.94 1006.87 1007.05 1007.80 1007.55 1007.09 1005.79 1006.73 1006.66 1006.61 1005.68 1005.59 1005.89 1005.86 1005.72 1005.69 1005.78 1006.04 1006.39 1006.61 1006.96 1007.25 1007.87 1008.34 1009.24 1010.05 1010.75 1011.67 1012.67 1013.91 1014.67 1015.37 1016.22 1017.16 1018.11 1019.08 1020.02 1020.87 1021.69 1022.42 1023.40 1024.22 1025.00 1025.76
1007.16 1006.44 1006.75 1007.14 1007.16 1007.38 1007.48 1007.61 1007.43 1007.34 1007.32 1007.19 1006.76 1006.70 1006.64 1006.71 1006.88 1007.30 1007.78 1008.30 1008.54 1008.66 1009.12 1009.50 1009.91 1010.86 1011.77 1012.20 1012.79 1013.83 1014.78 1015.79 1016.72 1017.52 1018.31 1019.12 1019.90 1020.56 1021.23 1022.14 1023.19 1024.19 1024.76 1025.27
1007.13 1007.01 1006.98 1007.48 1007.52 1007.70 1007.96 1008.20 1008.32 1008.27 1008.40 1008.29 1007.80 1007.67 1007.56 1007.67 1008.04 1008.44 1008.93 1009.35 1009.63 1010.15 1010.37 1010.49 1011.00 1011.77 1012.65 1013.08 1013.42 1014.08 1015.02 1015.83 1016.66 1017.67 1018.54 1019.22 1019.90 1020.76 1021.40 1022.08 1022.81 1023.44 1024.04 1024.58
1006.95 1007.00 1007.06 1007.62 1007.68 1008.01 1007.56 1008.22 1008.59 1008.90 1008.96 1008.71 1008.47 1008.47 1008.64 1008.87 1009.05 1009.36 1009.88 1010.34 1010.74 1010.98 1011.48 1011.74 1012.08 1012.68 1013.34 1013.91 1014.60 1014.97 1015.42 1015.99 1016.96 1017.85 1018.67 1019.46 1020.24 1021.03 1021.82 1022.37 1022.67 1022.90 1023.18 1023.57
1006.72 1006.80 1007.33 1006.61 1006.07 1006.24 1006.14 1006.53 1008.27 1008.98 1009.19 1009.10 1009.04 1009.01 1009.07 1009.28 1009.80 1010.31 1011.02 1011.54 1011.90 1012.28 1012.72 1013.09 1013.53 1014.05 1014.90 1015.17 1015.75 1016.06 1016.15 1016.48 1017.36 1018.50 1019.40 1020.04 1020.65 1021.33 1022.00 1022.59 1023.05 1022.99 1023.14 1023.47
Thickness
5668 5655 5654 5661 5663 5669 5666 5658 5663 5670 5678 5669 5665 5670 5679 5677 5673 5675 5673 5672 5672 5674 5668 5664 5662 5660 5658 5658 5656 5655 5653 5653 5651 5647 5644 5640 5636 5631 5631 5630 5629 5625 5619 5617
5649 5649 5667 5665 5661 5660 5658 5654 5649 5659 5667 5655 5663 5661 5672 5675 5677 5683 5686 5681 5682 5669 5662 5660 5656 5654 5653 5653 5651 5649 5649 5647 5646 5644 5639 5634 5627 5621 5619 5618 5617 5616 5612 5608
5642 5663 5669 5660 5655 5650 5650 5644 5646 5649 5656 5652 5648 5644 5660 5682 5680 5686 5689 5697 5690 5685 5672 5661 5656 5654 5650 5648 5647 5645 5643 5642 5640 5637 5632 5624 5618 5612 5608 5606 5604 5603 5603 5598
5641 5660 5660 5651 5650 5649 5639 5654 5653 5649 5639 5621 5641 5627 5653 5671 5677 5681 5694 5689 5693 5685 5673 5662 5655 5649 5649 5646 5642 5640 5637 5634 5631 5629 5625 5622 5615 5605 5598 5595 5592 5591 5591 5586
5646 5647 5645 5646 5653 5649 5646 5651 5644 5640 5627 5622 5624 5604 5644 5666 5666 5683 5700 5693 5691 5683 5677 5667 5661 5656 5647 5642 5638 5634 5630 5626 5623 5621 5617 5612 5604 5598 5590 5584 5580 5579 5576 5572
5640 5646 5647 5653 5648 5648 5640 5634 5622 5609 5604 5591 5629 5613 5629 5658 5679 5687 5696 5694 5688 5680 5675 5668 5657 5647 5640 5633 5630 5627 5622 5619 5616 5612 5607 5603 5596 5589 5580 5573 5569 5565 5561 5557
5626 5631 5638 5641 5633 5632 5630 5618 5588 5580 5570 5598 5617 5604 5653 5671 5679 5687 5697 5693 5677 5672 5666 5657 5648 5642 5633 5628 5624 5620 5618 5613 5608 5602 5598 5593 5588 5584 5577 5568 5561 5555 5549 5543
5612 5610 5627 5633 5637 5624 5613 5612 5588 5577 5576 5590 5598 5603 5645 5665 5684 5677 5678 5683 5668 5656 5652 5647 5644 5637 5630 5622 5616 5614 5610 5606 5599 5592 5588 5583 5579 5574 5566 5559 5551 5545 5540 5534
5597 5604 5622 5625 5626 5629 5602 5599 5616 5593 5511 5547 5600 5628 5647 5653 5661 5668 5672 5666 5652 5646 5643 5639 5632 5628 5621 5615 5610 5606 5601 5598 5591 5585 5579 5574 5569 5563 5555 5547 5538 5533 5528 5521
5614 5598 5601 5606 5612 5610 5610 5611 5583 5566 5560 5554 5596 5606 5637 5650 5651 5665 5664 5658 5648 5638 5631 5627 5622 5618 5612 5606 5600 5596 5594 5591 5584 5578 5572 5566 5559 5552 5545 5536 5527 5521 5515 5508
5607 5599 5584 5592 5592 5597 5595 5593 5594 5589 5569 5569 5568 5619 5645 5658 5660 5661 5661 5657 5643 5635 5626 5619 5613 5608 5602 5597 5592 5589 5585 5580 5575 5569 5563 5556 5549 5541 5533 5524 5516 5509 5502 5493
5599 5589 5568 5578 5589 5590 5595 5597 5589 5577 5575 5571 5581 5645 5652 5654 5656 5652 5655 5650 5637 5633 5623 5615 5606 5598 5592 5589 5585 5582 5576 5572 5566 5560 5553 5546 5538 5531 5522 5513 5505 5496 5488 5479
5589 5570 5554 5568 5569 5574 5574 5585 5601 5591 5570 5601 5581 5642 5634 5645 5649 5647 5647 5642 5626 5616 5609 5602 5595 5592 5588 5582 5578 5574 5568 5564 5557 5550 5543 5534 5528 5521 5512 5502 5493 5485 5476 5466
5591 5569 5574 5588 5603 5581 5568 5578 5581 5588 5583 5603 5612 5646 5636 5639 5642 5645 5637 5624 5614 5609 5604 5596 5592 5589 5584 5579 5573 5568 5562 5556 5547 5541 5533 5525 5517 5510 5502 5491 5481 5471 5461 5452
5579 5562 5576 5598 5588 5581 5580 5584 5578 5576 5609 5582 5649 5618 5657 5640 5628 5635 5631 5617 5603 5598 5593 5594 5591 5585 5580 5574 5568 5562 5555 5546 5537 5530 5523 5515 5506 5495 5487 5480 5468 5456 5447 5438
5561 5561 5562 5568 5582 5567 5567 5567 5584 5583 5592 5585 5614 5623 5632 5633 5628 5621 5620 5610 5598 5596 5596 5595 5590 5582 5579 5575 5568 5559 5549 5538 5531 5522 5514 5504 5494 5482 5470 5465 5453 5443 5433 5423
5544 5553 5545 5556 5569 5546 5541 5609 5573 5578 5588 5586 5581 5647 5608 5615 5618 5619 5612 5605 5603 5600 5600 5595 5591 5586 5580 5573 5566 5558 5545 5530 5521 5511 5501 5491 5482 5471 5457 5451 5441 5431 5419 5408
5532 5538 5535 5549 5538 5541 5603 5603 5600 5586 5589 5581 5592 5626 5610 5609 5615 5619 5611 5599 5604 5609 5602 5593 5586 5580 5574 5565 5556 5545 5532 5521 5511 5498 5488 5479 5469 5460 5444 5438 5431 5419 5406 5394
5540 5536 5533 5537 5545 5562 5587 5590 5582 5572 5594 5605 5591 5608 5614 5603 5588 5623 5596 5610 5615 5604 5601 5596 5589 5578 5565 5554 5542 5529 5518 5507 5497 5488 5479 5468 5457 5447 5434 5427 5419 5405 5393 5381
5531 5534 5528 5519 5537 5545 5616 5587 5585 5564 5572 5622 5594 5609 5608 5572 5570 5624 5608 5597 5593 5591 5585 5577 5567 5557 5549 5538 5529 5515 5503 5494 5485 5477 5468 5456 5445 5435 5424 5417 5405 5392 5379 5371
5534 5529 5530 5535 5537 5538 5566 5545 5564 5547 5596 5547 5565 5588 5581 5578 5588 5575 5576 5573 5567 5563 5558 5552 5551 5545 5535 5523 5511 5500 5489 5484 5477 5463 5454 5444 5435 5423 5414 5404 5390 5377 5365 5356
5523 5529 5530 5521 5528 5536 5538 5538 5558 5544 5525 5528 5541 5540 5546 5548 5544 5543 5544 5542 5540 5538 5534 5530 5524 5516 5510 5502 5495 5483 5476 5470 5460 5451 5441 5430 5419 5408 5398 5388 5374 5363 5352 5341
5506 5520 5526 5524 5531 5491 5494 5500 5502 5504 5501 5514 5524 5520 5520 5523 5520 5517 5514 5512 5513 5514 5510 5506 5505 5494 5486 5483 5478 5469 5460 5447 5439 5431 5423 5413 5402 5393 5383 5372 5357 5344 5334 5326
5463 5466 5488 5490 5478 5477 5478 5484 5486 5486 5487 5487 5494 5499 5499 5498 5495 5490 5487 5487 5487 5480 5481 5479 5478 5471 5462 5458 5455 5450 5439 5431 5424 5414 5402 5393 5385 5373 5364 5354 5343 5333 5320 5310
5455 5463 5462 5454 5458 5458 5469 5467 5470 5463 5463 5468 5471 5473 5476 5476 5475 5473 5465 5461 5459 5458 5452 5453 5452 5447 5440 5432 5427 5424 5420 5414 5405 5395 5384 5375 5365 5355 5342 5333 5325 5318 5306 5297
5444 5455 5453 5468 5471 5478 5483 5477 5461 5453 5453 5457 5461 5461 5458 5462 5457 5449 5441 5437 5434 5432 5426 5425 5419 5418 5409 5408 5404 5402 5400 5396 5386 5373 5361 5352 5343 5332 5323 5313 5301 5297 5287 5277